Simultaneous Nadir Overpasses (SNOs) Predictions

Prediction of SNOs between METOP-B and TERRA Satellite Orbit:

Table of predicted SNOs for the next 14.0 days since TLE Epoch: 3/9/2024
Index Date (METOP-B) Time (METOP-B) Lat,Lon (METOP-B) SZA (METOP-B ) Date (TERRA) Time (TERRA) Lat,Lon (TERRA) SZA (TERRA ) Distance(km) Time Diff (sec)
1 03/11/2024 00:52:45 -80.37, 10.96 95.42 03/11/2024 00:53:07 -80.37, 11.04 95.41 1.54 22
2 03/11/2024 01:43:22 80.45, 179.37 84.72 03/11/2024 01:42:25 80.46, 179.52 84.72 2.78 57
3 03/13/2024 15:24:14 -77.96, 135.27 99.52 03/13/2024 15:25:27 -77.69, 136.98 99.76 50.14 73
4 03/13/2024 16:13:43 80.41, -38.80 83.63 03/13/2024 16:13:40 80.40, -38.87 83.61 1.37 3
5 03/16/2024 06:44:05 80.33, 102.65 82.48 03/16/2024 06:44:55 80.32, 102.57 82.48 1.48 50
6 03/16/2024 07:34:42 -80.44, -88.64 97.35 03/16/2024 07:34:14 -80.43, -88.77 97.37 2.43 28
7 03/18/2024 22:05:05 -80.33, 52.43 98.55 03/18/2024 22:05:29 -80.33, 52.49 98.54 1.06 24
8 03/18/2024 22:55:40 80.47,-138.55 81.67 03/18/2024 22:54:46 80.46,-138.70 81.64 3.20 54
9 03/21/2024 12:37:21 -75.76, 168.37 104.84 03/21/2024 12:38:34 -75.33, 170.94 105.31 86.05 73



Historial Predications of SNOs between METOP-B and TERRA
